{"data":{"norad_id":59867,"intl_designator":"2024-098K","name":"STARLINK-31952","alt_names":[],"object_type":"PAYLOAD","status":"ACTIVE","operator":null,"country":"US","launch_date":"2024-05-24","launch_site_code":"AFETR","launch_vehicle":null,"mission":null,"orbit_class":"UNKNOWN","rcs_meters":null,"size_class":null,"mass_kg":null,"dimensions":null,"purposes":["comms"],"wikipedia_slug":null,"has_3d_model":false,"image_url":null,"decayed_at":null,"tle_current":{"epoch":"2026-09-21T09:15:12.684672Z","epoch_age_seconds":97984,"freshness":"FRESH","line1":"1 59867U 24098K   26264.38556348  .00000833  00000+0  39808-4 0  9995","line2":"2 59867  43.0020 252.9527 0001115 270.8853  89.1871 15.27578549131775","mean_motion":15.27578549,"eccentricity":0.0001115,"inclination_deg":43.002,"raan_deg":252.9527,"arg_perigee_deg":270.8853,"mean_anomaly_deg":89.1871,"bstar":3.9808e-5,"rev_number":13177,"period_min":94.266838254744,"perigee_km":482.28841812493,"apogee_km":483.81846359324,"semimajor_km":6861.1904408591,"source":"CELESTRAK","updated_at":"2026-09-22T09:00:49.102083Z"}}}